Content
SEND FEEDBACK

Daily
Averages
Monthly
Summary
Philippines

QUEZON CITY, PHILIPPINES


Home > Asia > Philippines
Elevation: 151 feet     Latitude: 14 39N     Longitude: 121 03E

WEATHER
 
SELECT A DAY
Number of Records: 172,634;   Date Range: 7/1/96 - 8/30/14
 
SHARE

PRINT THIS DATA

[ ← Previous Day ]
WEATHER ALMANAC - APRIL 8, 2013
[ Next Day → ]
[ °C ]   °F
Weather ElementAverageHighLow
Temperature84.8 °F96.8 °F (1:00 pm) (4:00 pm)
Dewpoint72.5 °F77 °F (1:00 am) (7:00 pm)
Humidity65 %84 % (5:00 am)39 % (2:00 pm)
Barometer29.78 in29.87 in (11:00 pm)29.71 in (3:00 pm)
Wind Speed5.6 mph10.4 mph (6:00 pm)
Weather ElementAverage
Visibility6.1 mi
Wind DirectionSSE (145.2 °)

Weather ElementTotal
Precipitation---
Heating Degree Days16.6 (Base 65)
Averaged from 31 records on April 8, 2013
WEATHER CONDITIONS BREAKOUT
WIND DIRECTION BREAKOUT
WEATHER BY HOUR - APRIL 8, 2013
[ °C ]   °F
Local TimeTemperatureDewpointHumidityBarometerVisibilityWind DirectionWind SpeedGust SpeedPrecipitationEventsConditions
1:00 AM84.2 °F77.0 °F79 %29.77 in6.2 miESE (120°)5.8 mphPartly Cloudy
2:00 AM84.0 °F76.0 °F72 %29.76 in6.0 miESE (120°)4.5 mphHaze
2:00 AM84.2 °F77.0 °F79 %29.77 in6.2 miESE (120°)3.5 mphPartly Cloudy
3:00 AM82.4 °F75.2 °F79 %29.74 in6.2 miVariable1.2 mphPartly Cloudy
4:00 AM82.4 °F75.2 °F79 %29.74 in6.2 miCalmPartly Cloudy
5:00 AM82.0 °F76.0 °F78 %29.73 in6.0 miWest (280°)2.2 mphHaze
5:00 AM82.4 °F77.0 °F84 %29.74 in6.2 miWest (280°)3.5 mphPartly Cloudy
6:00 AM82.4 °F73.4 °F74 %29.77 in6.2 miNW (310°)3.5 mphPartly Cloudy
7:00 AM86.0 °F75.2 °F70 %29.80 in6.2 miCalmPartly Cloudy
8:00 AM86.0 °F76.0 °F66 %29.85 in6.0 miSouth (180°)4.5 mphHaze
8:00 AM86.0 °F77.0 °F74 %29.83 in6.2 miSouth (180°)3.5 mphPartly Cloudy
9:00 AM87.8 °F75.2 °F66 %29.86 in6.2 miSSW (200°)3.5 mphPartly Cloudy
10:00 AM87.8 °F77.0 °F70 %29.86 in6.2 miNW (310°)8.1 mphPartly Cloudy
11:00 AM89.0 °F76.0 °F57 %29.84 in6.0 miWNW (300°)6.7 mphHaze
11:00 AM89.6 °F77.0 °F66 %29.83 in6.2 miWNW (300°)5.8 mphScattered Clouds
12:00 PM95.0 °F75.2 °F53 %29.80 in6.2 miVariable4.6 mphScattered Clouds
1:00 PM96.8 °F73.4 °F47 %29.77 in6.2 miVariable4.6 mphScattered Clouds
2:00 PM95.0 °F73.0 °F39 %29.75 in6.0 miESE (120°)6.7 mphHaze
2:00 PM96.8 °F73.4 °F47 %29.74 in6.2 miSE (130°)6.9 mphScattered Clouds
3:00 PM95.0 °F71.6 °F47 %29.71 in6.2 miSE (140°)9.2 mphPartly Cloudy
4:00 PM0.0 °F0.0 °F29.71 in6.2 miESE (110°)8.1 mphPartly Cloudy
5:00 PM93.0 °F71.0 °F40 %29.72 in6.0 miSE (130°)6.7 mphHaze
5:00 PM93.2 °F71.6 °F49 %29.71 in6.2 miSE (130°)8.1 mphScattered Clouds
6:00 PM89.6 °F75.2 °F62 %29.74 in6.2 miSE (130°)10.4 mphScattered Clouds
7:00 PM87.8 °F75.2 °F66 %29.74 in6.2 miSE (130°)9.2 mphPartly Cloudy
8:00 PM87.0 °F76.0 °F62 %29.80 in6.0 miSE (130°)6.7 mphHaze
8:00 PM86.0 °F75.2 °F70 %29.80 in6.2 miSE (130°)6.9 mphPartly Cloudy
9:00 PM86.0 °F75.2 °F70 %29.83 in6.2 miESE (120°)8.1 mphPartly Cloudy
10:00 PM84.2 °F73.4 °F70 %29.86 in6.2 miSE (140°)4.6 mphPartly Cloudy
11:00 PM84.0 °F74.0 °F65 %29.87 in6.0 miSE (130°)8.9 mphHaze
11:00 PM84.2 °F73.4 °F70 %29.86 in6.2 miSE (130°)8.1 mphPartly Cloudy
Hourly data recorded from RPLL, located miles away from Quezon City, Philippines







STORIES FROM OUR PARTNERS